DB0OVP-13 Weather Reports


time (UTC)temp
F
wind
direction
speed
knots
gust
knots
rain 1hr
in
rain 24hr
in
rain mn
in
humidity
%
barometer
mb
20260507070050 51 135 0.9 10.4 0.00 0.02 0.00 100
20260507064550 50 61 7.0 9.6 0.00 0.02 0.00 100
20260507063050 50 56 3.5 7.8 0.00 0.02 0.00 100
20260507061550 49 104 3.5 8.7 0.00 0.02 0.00 100
20260507060050 49 63 4.3 8.7 0.00 0.02 0.00 100
20260507054550 48 81 7.0 11.3 0.00 0.02 0.00 100
20260507053050 48 104 3.5 9.6 0.00 0.02 0.00 100
20260507051550 47 74 5.2 9.6 0.00 0.02 0.00 100
20260507050050 47 82 1.7 10.4 0.00 0.02 0.00 100
20260507044550 48 33 3.5 11.3 0.00 0.02 0.00 100
20260507043050 47 56 3.5 11.3 0.00 0.02 0.00 100
20260507041550 45 53 6.1 7.8 0.00 0.02 0.00 100
20260507040050 45 26 1.7 7.8 0.00 0.02 0.00 100
20260507034551 45 54 0.0 6.1 0.00 0.02 0.00 100
20260507033051 45 15 5.2 8.7 0.00 0.02 0.00 100
20260507031551 45 112 3.5 7.0 0.00 0.02 0.00 100
20260507030051 45 157 5.2 7.8 0.00 0.02 0.00 100
20260507024551 45 97 3.5 7.8 0.00 0.02 0.00 100
20260507023051 45 63 0.9 8.7 0.00 0.02 0.00 100
20260507021551 45 94 8.7 10.4 0.00 0.02 0.00 100
20260507020051 45 130 1.7 7.8 0.00 0.02 0.00 100
20260507014551 45 142 2.6 7.8 0.00 0.02 0.00 100
20260507013051 45 130 2.6 10.4 0.00 0.02 0.00 100
20260507011551 46 71 4.3 7.0 0.00 0.02 0.00 100
20260507010051 45 112 4.3 8.7 0.00 0.02 0.00 100
20260507004551 45 113 5.2 8.7 0.00 0.02 0.00 100
20260507003051 45 106 2.6 7.8 0.00 0.02 0.00 100
20260507001551 46 92 1.7 7.0 0.00 0.02 0.00 100
20260507000051 45 140 2.6 9.6 0.00 0.02 0.00 100
20260506234551 45 52 5.2 6.1 0.00 0.02 0.00 100
20260506233051 45 136 2.6 9.6 0.00 0.02 0.00 100
20260506231551 45 22 1.7 8.7 0.00 0.02 0.00 100
20260506230052 45 90 3.5 9.6 0.00 0.02 0.00 100
20260506224552 45 39 5.2 10.4 0.00 0.02 0.00 100
20260506223052 46 165 4.3 7.8 0.00 0.02 0.00 100
20260506221552 45 73 4.3 14.8 0.00 0.02 0.00 100
20260506220052 46 80 6.1 11.3 0.00 0.02 0.00 100
20260506214552 46 87 2.6 9.6 0.00 0.02 0.00 100
20260506213052 46 81 5.2 9.6 0.00 0.02 0.00 100
20260506211552 46 111 3.5 7.8 0.00 0.02 0.00 100
20260506210052 45 98 5.2 9.6 0.00 0.02 0.00 100
20260506204552 46 91 5.2 8.7 0.00 0.02 0.00 100
20260506203052 46 113 3.5 8.7 0.00 0.02 0.00 100
20260506201552 46 77 2.6 9.6 0.00 0.02 0.00 100
20260506200052 46 154 3.5 9.6 0.00 0.02 0.02 100
20260506194552 46 118 5.2 7.8 0.00 0.02 0.02 100
20260506193052 46 127 0.9 7.8 0.00 0.02 0.02 100
20260506191552 46 102 1.7 13.0 0.00 0.02 0.02 100
20260506190052 46 123 4.3 7.0 0.00 0.02 0.02 100
20260506184553 46 80 4.3 9.6 0.00 0.02 0.02 100
20260506183052 46 53 7.8 9.6 0.00 0.02 0.02 100
20260506181553 46 71 6.1 10.4 0.00 0.02 0.02 100
20260506180053 47 112 4.3 10.4 0.00 0.02 0.02 100
20260506174553 47 80 3.5 12.2 0.00 0.02 0.02 100
20260506173053 47 116 3.5 10.4 0.00 0.02 0.02 100
20260506171553 47 120 2.6 11.3 0.00 0.02 0.02 100
20260506170053 48 95 2.6 11.3 0.00 0.02 0.02 100
20260506164553 48 85 4.3 12.2 0.01 0.02 0.02 100
20260506163053 48 132 3.5 8.7 0.01 0.02 0.02 100
20260506161553 48 129 1.7 11.3 0.01 0.02 0.02 100
20260506160053 49 82 5.2 11.3 0.01 0.02 0.02 100
20260506154553 48 116 4.3 10.4 0.00 0.01 0.01 100
20260506153053 48 61 7.0 12.2 0.00 0.01 0.01 100
20260506151553 48 156 6.1 8.7 0.00 0.01 0.01 100
20260506150053 48 67 4.3 11.3 0.00 0.01 0.01 100
20260506144554 48 102 5.2 10.4 0.00 0.01 0.01 100
20260506143053 49 56 7.0 9.6 0.00 0.01 0.01 100
20260506141553 49 132 6.1 11.3 0.00 0.01 0.01 100
20260506140053 49 46 8.7 11.3 0.00 0.02 0.01 100
20260506134553 50 94 5.2 9.6 0.00 0.02 0.01 100
20260506133053 50 66 8.7 9.6 0.01 0.02 0.01 100
20260506131554 50 71 2.6 9.6 0.01 0.02 0.01 100
20260506130054 50 92 2.6 9.6 0.01 0.02 0.01 100
20260506124554 51 35 6.1 10.4 0.01 0.02 0.01 100
20260506123054 51 105 3.5 8.7 0.00 0.01 0.00 100
20260506121554 51 136 1.7 9.6 0.00 0.01 0.00 100
20260506120054 51 108 7.8 11.3 0.00 0.04 0.00 100
20260506114554 51 77 4.3 9.6 0.00 0.04 0.00 100
20260506113054 51 122 3.5 10.4 0.00 0.04 0.00 100
20260506111554 52 75 7.0 10.4 0.00 0.04 0.00 100
20260506110054 52 68 3.5 10.4 0.00 0.07 0.00 100
20260506104554 52 84 4.3 11.3 0.00 0.07 0.00 100
20260506103054 53 113 5.2 13.0 0.00 0.07 0.00 100
20260506101554 54 39 6.1 7.8 0.00 0.07 0.00 100
20260506100054 54 90 4.3 11.3 0.00 0.08 0.00 100
20260506094554 54 74 7.8 11.3 0.00 0.08 0.00 100
20260506093054 54 68 5.2 10.4 0.00 0.08 0.00 100
20260506091554 54 37 2.6 9.6 0.00 0.08 0.00 100
20260506090055 53 40 6.1 13.9 0.00 0.09 0.00 100
20260506084555 53 59 6.1 13.9 0.00 0.09 0.00 100
20260506083055 52 87 5.2 13.0 0.00 0.09 0.00 100
20260506081555 52 67 5.2 13.0 0.00 0.09 0.00 100
20260506073055 52 68 4.3 10.4 0.00 0.09 0.00 100
20260506071555 52 81 4.3 10.4 0.00 0.09 0.00 100